星链-34583 (STARLINK-34583)

导读 | 豆包AI

STARLINK-34583是美国于2025年6月28日发射的星链卫星,归属太空探索技术公司(SpaceX)星链互联网卫星星座项目,星链计划旨在为全球提供高速低延迟宽带互联网服务,该卫星延续星链星座布局,进一步推进全球卫星互联网组网进程,补充星座覆盖能力与服务容量。

基本信息
目录编号:
64713
目录名称:
STARLINK-34583
国际标识:
2025-142T
轨道中心:
EARTH
卫星名称:
星链-34583
卫星全名:
星链-34583 (STARLINK-34583)
卫星状态:
在轨 (已飞行305 天)
发射日期:
2025-06-28 UTC
国别 :
美国 (US)
星等 :
--
轨道信息
数据来源 国际轨道数据
星历时间: 2026-04-29T12:56:05+0800
8小时前
查看轨道信息
半长轴: 6950.215km
偏心率: 0.0004329
轨道倾角: 70.001°
近地点辐角 263.036°
升交点赤经 187.209°
平近点角 97.031°
近地点: 569.069km
远地点: 575.087km
周期: 96.107分钟
每日圈数: 14.983229
详细信息
固有亮度:
5
最大亮度:
2.5
卫星平台:
Starlink V1.0
覆盖范围:
全球
运营商:
太空探索技术公司
运营商所在国:
美国
制造商(研发单位):
太空探索技术公司
制造商所在国:
美国
使用方式:
暂无
卫星简介
Starlink 计划是 SpaceX 推出的全球卫星互联网项目,通过发射低轨道卫星,为全球尤其是偏远地区提供高速、低延迟的互联网服务。自 2019 年起,Starlink 已部署数千颗卫星,旨在缩小全球数字鸿沟,推动互联网普及。该项目还为军事、航空等行业提供通信支持,带来广泛经济效益。
2D轨道图
3D轨道图
轨道高度分析图
轨道倾角分析图
轨道综合分析图
查看轨道综合分析图